When you browse on this site, cookies collect data to enhance your experience and personalize the content and advertising you see.
Visit our Privacy Policy to learn more. By continuing to use the site, you agree to this use of cookies and data.
  • în România
  • Lista ţărilor
  • Pe 7 zile
  • Temperatura apei
  • Meteo pe hartă
  • Widget-uri
  • user-avatar
    Intrare

    Meteo pe oră la Maracay

    Astăzi, 24 August, Sâmbătă

    Timp Temperatura Precipitaţii Vânt Presiune Umiditate
    00:00 +23°C° 0 mm 1 m/s 712 mmHg 88%
    01:00 +23°C° 0 mm 1 m/s 712 mmHg 87%
    02:00 +23°C° 0 mm 1 m/s 712 mmHg 87%
    03:00 +23°C° 0 mm 1 m/s 712 mmHg 87%
    04:00 +23°C° 0 mm 1 m/s 712 mmHg 86%
    05:00 +23°C° 0 mm 1 m/s 712 mmHg 85%
    06:00 +24°C° 0 mm 1 m/s 713 mmHg 83%
    07:00 +25°C° 0 mm 1 m/s 713 mmHg 80%
    08:00 +26°C° 0 mm 1 m/s 714 mmHg 73%
    09:00 +28°C° 0 mm 1 m/s 714 mmHg 66%
    10:00 +30°C° 0 mm 1 m/s 714 mmHg 60%
    11:00 +30°C° 0.1 mm 1 m/s 713 mmHg 60%
    12:00 +30°C° 0.1 mm 2 m/s 713 mmHg 60%
    13:00 +30°C° 0.1 mm 2 m/s 712 mmHg 60%
    14:00 +30°C° 0.3 mm 2 m/s 712 mmHg 63%
    15:00 +30°C° 0.3 mm 2 m/s 711 mmHg 67%
    16:00 +29°C° 0.3 mm 1 m/s 711 mmHg 70%
    17:00 +28°C° 0.3 mm 1 m/s 711 mmHg 75%
    18:00 +26°C° 0.3 mm 1 m/s 711 mmHg 80%
    19:00 +25°C° 0.3 mm 1 m/s 712 mmHg 85%
    20:00 +24°C° 0 mm 1 m/s 712 mmHg 86%
    21:00 +24°C° 0 mm 1 m/s 712 mmHg 87%
    22:00 +24°C° 0 mm 1 m/s 713 mmHg 88%
    23:00 +23°C° 0 mm 1 m/s 712 mmHg 88%

    Mâine, 25 August, Duminică

    Timp Temperatura Precipitaţii Vânt Presiune Umiditate
    00:00 +23°C° 0 mm 1 m/s 712 mmHg 89%
    01:00 +23°C° 0 mm 1 m/s 712 mmHg 89%
    02:00 +23°C° 0 mm 1 m/s 711 mmHg 89%
    03:00 +23°C° 0 mm 1 m/s 711 mmHg 89%
    04:00 +23°C° 0 mm 1 m/s 711 mmHg 89%
    05:00 +24°C° 0 mm 1 m/s 711 mmHg 87%
    06:00 +24°C° 0 mm 1 m/s 712 mmHg 85%
    07:00 +25°C° 0 mm 1 m/s 712 mmHg 83%
    08:00 +27°C° 0 mm 1 m/s 713 mmHg 76%
    09:00 +28°C° 0 mm 1 m/s 713 mmHg 69%
    10:00 +30°C° 0 mm 2 m/s 713 mmHg 63%
    11:00 +30°C° 0.1 mm 2 m/s 713 mmHg 61%
    12:00 +31°C° 0.1 mm 2 m/s 712 mmHg 59%
    13:00 +31°C° 0.1 mm 3 m/s 711 mmHg 58%
    14:00 +30°C° 0.5 mm 3 m/s 711 mmHg 64%
    15:00 +30°C° 0.5 mm 2 m/s 711 mmHg 70%
    16:00 +29°C° 0.5 mm 2 m/s 710 mmHg 77%
    17:00 +27°C° 0.5 mm 2 m/s 710 mmHg 80%
    18:00 +26°C° 0.5 mm 2 m/s 711 mmHg 84%
    19:00 +25°C° 0.5 mm 1 m/s 711 mmHg 88%
    20:00 +24°C° 0 mm 1 m/s 711 mmHg 88%
    21:00 +24°C° 0 mm 1 m/s 712 mmHg 88%
    22:00 +24°C° 0 mm 1 m/s 712 mmHg 88%
    23:00 +23°C° 0 mm 1 m/s 712 mmHg 88%

    Poimâine, 26 August, Luni

    Timp Temperatura Precipitaţii Vânt Presiune Umiditate
    00:00 +23°C° 0 mm 1 m/s 711 mmHg 88%
    01:00 +23°C° 0 mm 1 m/s 711 mmHg 88%
    02:00 +23°C° 0 mm 1 m/s 711 mmHg 88%
    03:00 +23°C° 0 mm 1 m/s 710 mmHg 87%
    04:00 +23°C° 0 mm 1 m/s 710 mmHg 87%
    05:00 +23°C° 0 mm 1 m/s 711 mmHg 85%
    06:00 +24°C° 0 mm 1 m/s 712 mmHg 83%
    07:00 +23°C° 0 mm 0 m/s 712 mmHg 81%
    08:00 +27°C° 0 mm 1 m/s 712 mmHg 74%
    09:00 +28°C° 0 mm 1 m/s 713 mmHg 67%
    10:00 +30°C° 0 mm 2 m/s 713 mmHg 60%
    11:00 +30°C° 0 mm 2 m/s 713 mmHg 58%
    12:00 +31°C° 0 mm 3 m/s 712 mmHg 57%
    13:00 +31°C° 0 mm 3 m/s 711 mmHg 55%
    14:00 +30°C° 0.1 mm 2 m/s 711 mmHg 60%
    15:00 +30°C° 0.1 mm 2 m/s 710 mmHg 65%
    16:00 +29°C° 0.1 mm 2 m/s 710 mmHg 70%
    17:00 +28°C° 0.1 mm 1 m/s 710 mmHg 76%
    18:00 +26°C° 0.1 mm 1 m/s 710 mmHg 82%
    19:00 +25°C° 0.1 mm 1 m/s 711 mmHg 88%
    20:00 +24°C° 0 mm 1 m/s 711 mmHg 88%
    21:00 +24°C° 0 mm 1 m/s 711 mmHg 89%
    22:00 +24°C° 0 mm 1 m/s 712 mmHg 89%
    23:00 +23°C° 0 mm 1 m/s 711 mmHg 89%

    27 August, Marţi

    Timp Temperatura Precipitaţii Vânt Presiune Umiditate
    00:00 +23°C° 0 mm 1 m/s 711 mmHg 88%
    01:00 +23°C° 0 mm 1 m/s 711 mmHg 88%
    02:00 +22°C° 0 mm 1 m/s 711 mmHg 87%
    03:00 +22°C° 0 mm 1 m/s 711 mmHg 86%
    04:00 +22°C° 0 mm 1 m/s 711 mmHg 85%
    05:00 +23°C° 0 mm 1 m/s 711 mmHg 82%
    06:00 +22°C° 0 mm 0 m/s 712 mmHg 80%
    07:00 +23°C° 0 mm 0 m/s 712 mmHg 77%
    08:00 +26°C° 0 mm 1 m/s 712 mmHg 72%
    09:00 +28°C° 0 mm 1 m/s 713 mmHg 66%
    10:00 +29°C° 0 mm 2 m/s 713 mmHg 61%
    11:00 +30°C° 0.1 mm 2 m/s 712 mmHg 60%
    12:00 +30°C° 0.1 mm 2 m/s 711 mmHg 59%
    13:00 +31°C° 0.1 mm 2 m/s 711 mmHg 58%
    14:00 +30°C° 0.3 mm 2 m/s 710 mmHg 62%
    15:00 +30°C° 0.3 mm 2 m/s 710 mmHg 67%
    16:00 +29°C° 0.3 mm 2 m/s 710 mmHg 71%
    17:00 +28°C° 0.4 mm 2 m/s 710 mmHg 77%
    18:00 +26°C° 0.4 mm 1 m/s 710 mmHg 82%
    19:00 +25°C° 0.4 mm 1 m/s 710 mmHg 88%
    20:00 +25°C° 0.1 mm 1 m/s 711 mmHg 88%
    21:00 +24°C° 0.1 mm 1 m/s 711 mmHg 89%
    22:00 +24°C° 0.1 mm 1 m/s 712 mmHg 90%
    23:00 +24°C° 0.3 mm 1 m/s 711 mmHg 90%

    28 August, Miercuri

    Timp Temperatura Precipitaţii Vânt Presiune Umiditate
    00:00 +24°C° 0.3 mm 1 m/s 711 mmHg 90%
    01:00 +23°C° 0.3 mm 1 m/s 710 mmHg 90%
    02:00 +23°C° 0 mm 1 m/s 710 mmHg 89%
    03:00 +23°C° 0 mm 1 m/s 710 mmHg 89%
    04:00 +23°C° 0 mm 1 m/s 710 mmHg 88%
    05:00 +24°C° 0 mm 1 m/s 711 mmHg 86%
    06:00 +22°C° 0 mm 0 m/s 711 mmHg 85%
    07:00 +23°C° 0 mm 0 m/s 712 mmHg 83%
    08:00 +27°C° 0 mm 1 m/s 712 mmHg 76%
    09:00 +29°C° 0 mm 1 m/s 712 mmHg 70%
    10:00 +30°C° 0 mm 1 m/s 713 mmHg 63%
    11:00 +30°C° 0.7 mm 2 m/s 712 mmHg 66%
    12:00 +30°C° 0.7 mm 2 m/s 711 mmHg 69%
    13:00 +30°C° 0.7 mm 2 m/s 710 mmHg 71%
    14:00 +29°C° 1.5 mm 2 m/s 710 mmHg 74%
    15:00 +29°C° 1.5 mm 2 m/s 710 mmHg 76%
    16:00 +28°C° 1.5 mm 2 m/s 709 mmHg 79%
    17:00 +27°C° 0.5 mm 1 m/s 710 mmHg 81%
    18:00 +26°C° 0.5 mm 1 m/s 710 mmHg 82%
    19:00 +25°C° 0.5 mm 1 m/s 710 mmHg 84%
    20:00 +25°C° 0.1 mm 1 m/s 711 mmHg 85%
    21:00 +24°C° 0.1 mm 1 m/s 711 mmHg 85%
    22:00 +24°C° 0.1 mm 1 m/s 711 mmHg 85%
    23:00 +24°C° 0 mm 1 m/s 711 mmHg 85%

    29 August, Joi

    Timp Temperatura Precipitaţii Vânt Presiune Umiditate
    00:00 +24°C° 0 mm 1 m/s 710 mmHg 84%
    01:00 +24°C° 0 mm 1 m/s 710 mmHg 83%
    02:00 +24°C° 0 mm 1 m/s 709 mmHg 83%
    03:00 +24°C° 0 mm 1 m/s 709 mmHg 83%
    04:00 +23°C° 0 mm 1 m/s 709 mmHg 83%
    05:00 +24°C° 0 mm 1 m/s 710 mmHg 81%
    06:00 +25°C° 0 mm 1 m/s 711 mmHg 80%
    07:00 +26°C° 0 mm 1 m/s 711 mmHg 79%
    08:00 +27°C° 0.1 mm 1 m/s 711 mmHg 74%
    09:00 +28°C° 0.1 mm 1 m/s 712 mmHg 70%
    10:00 +29°C° 0.1 mm 1 m/s 712 mmHg 66%
    11:00 +30°C° 0.3 mm 1 m/s 711 mmHg 65%
    12:00 +30°C° 0.3 mm 1 m/s 711 mmHg 63%
    13:00 +31°C° 0.3 mm 1 m/s 710 mmHg 62%
    14:00 +30°C° 0.7 mm 1 m/s 710 mmHg 66%
    15:00 +30°C° 0.7 mm 1 m/s 709 mmHg 70%
    16:00 +29°C° 0.7 mm 1 m/s 709 mmHg 74%
    17:00 +28°C° 0.7 mm 1 m/s 709 mmHg 77%
    18:00 +26°C° 0.7 mm 1 m/s 710 mmHg 80%
    19:00 +25°C° 0.7 mm 1 m/s 710 mmHg 83%
    20:00 +25°C° 0.3 mm 1 m/s 710 mmHg 84%
    21:00 +24°C° 0.3 mm 1 m/s 711 mmHg 85%
    22:00 +24°C° 0.3 mm 2 m/s 711 mmHg 86%
    23:00 +24°C° 0.2 mm 2 m/s 711 mmHg 86%
    Arată mai mult